Preview of NWS' New Version of Forecast
This preview is not operational and should not be used for support decisions.
Latest weather observations around

Lansing Municipal Airport (KIGQ)

Using English Units (Switch to International System of Units)
Date/ Time (CDT) Wind (mph) Vis. (mi) Weather Sky Cond. Temp (°F) Rel. Humidity Wind Chill (°F) Heat Index (°F) Pressure Precip. (in)
Air Dwpt 6 hour Altimeter (inHg) Sea level (inHg) 1 hr 3 hr 6 hr
Max Min
Apr 20 21:15 Calm 10 Clear CLR 44 24     44%     29.86        
Apr 20 20:55 Calm 10 Clear CLR 44 24     46%     29.85        
Apr 20 20:35 Calm 10 Clear CLR 49 22     34%     29.84        
Apr 20 20:15 Calm 10 Clear CLR 49 21     33%     29.83        
Apr 20 19:55 N 5 10 Clear CLR 50 21     32%     29.83        
Apr 20 19:35 N 7 10 Clear CLR 51 21     30%     29.82        
Apr 20 19:15 N 7 10 Clear CLR 53 22     30%     29.82        
Apr 20 18:55 N 8 10 Clear CLR 54 22     29%     29.82        
Apr 20 18:35 NNE 10 10 Clear CLR 54 24     30%     29.82        
Apr 20 18:15 NNE 9 10 Clear CLR 56        %     29.81        
Apr 20 17:55 N 11 10 Clear CLR 57        %     29.81        
Apr 20 17:35 N 14 10 Clear CLR 58        %     29.8        
Apr 20 17:15 N 11 10 Clear CLR 59        %     29.8        
Apr 20 16:55 N 9 10 Clear CLR 60        %     29.79        
Apr 20 16:35 NE 5 10 Clear CLR 59        %     29.79        
Apr 20 16:15 NNE 13 10 Clear CLR 58        %     29.79        
Apr 20 15:55 NNE 15 10 Clear CLR 57        %     29.79        
Apr 20 15:35 NNE 10 10 Clear CLR 58        %     29.79        
Apr 20 15:15 N 10 10 Clear CLR 58        %     29.79        
Apr 20 14:55 N 13 10 Clear CLR 57 24     27%     29.8        
Apr 20 14:35 N 15 10 Clear CLR 56 24     28%     29.8        
Apr 20 14:15 N 17 10 Clear CLR 57 24     29%     29.8        
Apr 20 13:55 NNE 17 10 Clear CLR 56 27     33%     29.8        
Apr 20 13:35 N 16 10 Clear CLR 55 27     33%     29.8        
Apr 20 13:15 N 16 10 Clear CLR 54 27     36%     29.8        
Apr 20 12:55 N 15 10 Clear CLR 51 28     41%     29.81        
Apr 20 12:35 N 17 10 Clear CLR 51 30     44%     29.83        
Apr 20 12:15 N 21 10 Clear and Windy CLR 49 30     48% 42   29.83        
Apr 20 11:55 NNE 17 10 Clear CLR 48 31     52% 42   29.83        
Apr 20 11:35 N 16 10 Clear CLR 48 31     51% 42   29.84        
Apr 20 11:15 N 15 10 Clear CLR 49 32     51% 43   29.83        
Apr 20 10:55 N 15 10 Clear CLR 49 32     52% 43   29.83        
Apr 20 10:35 N 14 10 Clear CLR 48 33     54% 43   29.83        
Apr 20 10:15 NNE 17 10 Clear CLR 47 32     56% 40   29.82        
Apr 20 09:55 NNE 14 10 Clear CLR 47 33     59% 41   29.82        
Apr 20 09:35 N 13 10 Clear CLR 45 32     59% 39   29.81        
Apr 20 09:15 N 17 10 Clear CLR 45 32     61% 37   29.81        
Apr 20 08:55 N 20 10 Clear and Windy CLR 44 31     61% 36   29.81        
Apr 20 08:35 N 16 10 Clear CLR 44 31     61% 36   29.81        
Apr 20 08:15 N 13 10 Clear CLR 43 32     63% 37   29.81        
Apr 20 07:55 NNE 15 10 Clear CLR 43 31     63% 36   29.81        
Apr 20 07:35 NNE 16 10 Clear CLR 42 31     63% 35   29.8        
Apr 20 07:15 N 16 10 Clear CLR 42 31     63% 34   29.8        
Apr 20 06:55 N 16 10 Clear CLR 42 30     64% 33   29.79        
Apr 20 06:35 N 14 10 Clear CLR 41 31     66% 33   29.79        
Apr 20 06:15 N 16 10 Clear CLR 41 31     67% 32   29.78        
Apr 20 05:55 N 16 10 Clear CLR 41 31     66% 33   29.78        
Apr 20 05:35 N 13 10 Clear CLR 42 30     64% 35   29.78        
Apr 20 05:15 N 13 10 Clear CLR 42 31     65% 35   29.78        
Apr 20 04:55 N 16 10 Clear CLR 42 31     65% 33   29.78        
Apr 20 04:35 N 17 10 Clear CLR 42 31     66% 33   29.79        
Apr 20 04:15 N 20 10 Clear and Windy CLR 42 31     65% 33   29.79        
Apr 20 03:55 NNE 15 10 Clear CLR 42 31     64% 35   29.78        
Apr 20 03:35 N 15 10 Clear CLR 42 31     66% 35   29.78        
Apr 20 03:15 N 16 10 Clear CLR 42 32     67% 34   29.78        
Apr 20 02:55 N 14 10 Clear CLR 43 32     65% 36   29.79        
Apr 20 02:35 N 14 10 Clear CLR 42 32     67% 35   29.78        
Apr 20 02:15 N 8 10 Clear CLR 42 32     66% 38   29.79        
Apr 20 01:55 NNE 14 10 Clear CLR 42 32     67% 35   29.8        
Apr 20 01:35 NNE 15 10 Clear CLR 42 32     69% 34   29.8        
Apr 20 01:15 NNE 11 10 Clear CLR 42 34     74% 35   29.8        
Apr 20 00:55 NNE 10 10 Clear CLR 42 34     73% 36   29.81        
Apr 20 00:35 NNE 11 10 Clear CLR 42 34     74% 35   29.81        
Apr 20 00:15 N 11 10 Clear CLR 42 34     74% 35   29.81        
Apr 19 23:55 N 11 10 Clear CLR 42 34     73% 35   29.81        
Apr 19 23:35 N 11 10 Clear CLR 42 33     72% 35   29.82        
Apr 19 23:15 NNE 13 10 Clear CLR 42 32     69% 35   29.83        
Apr 19 22:55 NNE 17 10 Clear CLR 42 32     67% 34   29.83        
Apr 19 22:35 NNE 16 10 Partly Cloudy SCT050 42 32     65% 35   29.83        
Apr 19 22:15 NNE 17 10 Mostly Cloudy BKN050 43 32     64% 35   29.83        
Apr 19 21:55 N 14 10 Cloudy OVC050 43 31     62% 36   29.83        
Apr 19 21:35 N 16 10 Partly Cloudy SCT055 43 30     61% 35   29.83        
Apr 19 21:15 N 13 10 Clear CLR 42 30     62% 36   29.83        
Apr 19 20:55 N 16 10 Clear CLR 42 31     63% 34   29.83        
Apr 19 20:35 N 18 10 Clear CLR 42 31     64% 33   29.83        
Apr 19 20:15 N 20 10 Clear and Windy CLR 42 31     64% 33   29.83        
Apr 19 19:55 N 20 10 Clear and Windy CLR 42 30     63% 33   29.82        
Apr 19 19:35 N 23 10 Clear and Windy CLR 42 30     61% 33   29.82        
Apr 19 19:15 N 22 10 Clear and Windy CLR 43 31     63% 34   29.82        
Apr 19 18:55 NNE 20 10 Clear and Windy CLR 43 32     65% 34   29.81        
Apr 19 18:35 N 17 10 Clear CLR 43 32     65% 35   29.81        
Apr 19 18:15 NNE 16 10 Clear CLR 43 33     69% 35   29.82        
Apr 19 17:55 N 11 10 Clear CLR 43 34     71% 37   29.83        
Apr 19 17:35 N 17 10 Clear CLR 43 35     71% 36   29.82        
Apr 19 17:15 N 23 10 Clear and Windy CLR 44 35     70% 35   29.82        
Apr 19 16:55 N 16 10 Clear CLR 44 35     71% 37   29.81        
Apr 19 16:35 N 22 10 Clear and Windy CLR 45 36     72% 36   29.81        
Apr 19 16:15 N 13 10 Clear CLR 44 36     74% 38   29.81        
Apr 19 15:55 N 23 10 Clear and Windy CLR 44 36     75% 35   29.81        
Apr 19 15:35 N 20 10 Partly Cloudy and Windy SCT016 SCT031 43 37     78% 35   29.82        
Apr 19 15:15 N 21 10 Mostly Cloudy and Windy SCT016 BKN031 43 37     79% 34   29.82        
Apr 19 14:55 N 21 10 Mostly Cloudy and Windy BKN016 43 37     78% 34   29.82        
Apr 19 14:35 N 16 10 Mostly Cloudy BKN014 43 37     80% 35   29.83        
Apr 19 14:15 NNE 22 10 Cloudy and Windy OVC014 43 37     79% 34   29.83        
Apr 19 13:55 N 16 10 Cloudy OVC014 43 37     80% 35   29.84        
Apr 19 13:35 N 14 10 Cloudy OVC014 43 37     80% 36   29.83        
Apr 19 13:15 N 20 10 Cloudy and Windy OVC014 44 38     79% 36   29.82        
Apr 19 12:55 N 20 10 Cloudy and Windy OVC014 43 37     81% 34   29.82        
Apr 19 12:35 N 21 10 Cloudy and Windy OVC014 43 37     81% 34   29.82        
Apr 19 12:15 N 23 10 Cloudy and Windy OVC012 42 38     83% 33   29.83        
Apr 19 11:55 N 21 10 Cloudy and Windy OVC012 42 37     84% 33   29.82        
Apr 19 11:35 NNE 20 10 Cloudy and Windy OVC012 42 37     85% 33   29.83        
Apr 19 11:15 N 20 10 Cloudy and Windy OVC012 41 37     86% 32   29.83        
Apr 19 10:55 N 16 10 Cloudy OVC012 41 37     88% 33   29.83        
Apr 19 10:35 NNE 17 10 Cloudy OVC010 41 38     88% 32   29.83        
Apr 19 10:15 N 14 10 Cloudy OVC010 41 38     89% 33   29.83        
Apr 19 09:55 N 15 10 Cloudy OVC010 40 37     89% 32   29.82        
Apr 19 09:35 N 17 10 Cloudy OVC010 40 37     89% 32   29.81        
Apr 19 09:15 N 18 10 Cloudy OVC010 40 37     89% 31   29.8        
Apr 19 08:55 N 16 10 Cloudy OVC010 40 37     90% 32   29.8        
Apr 19 08:35 N 21 10 Cloudy and Windy OVC010 40 37     89% 30   29.78        
Apr 19 08:15 N 14 10 Cloudy OVC010 40 37     91% 32   29.78        
Apr 19 07:55 N 18 10 Cloudy OVC012 40 37     89% 31   29.77        
Apr 19 07:35 N 20 10 Cloudy and Windy OVC012 40 37     89% 30   29.76        
Apr 19 07:15 N 17 10 Cloudy OVC012 40 37     89% 31   29.77        
Apr 19 06:55 N 20 10 Cloudy and Windy OVC012 40 37     90% 30   29.77        
Apr 19 06:35 N 17 10 Cloudy OVC012 40 37     90% 31   29.76        
Apr 19 06:15 N 16 10 Cloudy OVC012 40 37     90% 31   29.76        
Apr 19 05:55 N 14 10 Cloudy OVC012 40 37     89% 32   29.75        
Apr 19 05:35 N 16 10 Cloudy OVC012 40 37     89% 31   29.74        
Apr 19 05:15 N 15 10 Cloudy OVC012 40 37     89% 31   29.73        
Apr 19 04:55 N 14 10 Cloudy OVC012 40 37     89% 32   29.73        
Apr 19 04:35 N 16 10 Cloudy OVC010 40 37     90% 32   29.73        
Apr 19 04:15 N 18 10 Cloudy OVC010 40 38     91% 31   29.73        
Apr 19 03:55 N 15 10 Cloudy OVC010 40 38     91% 32   29.74        
Apr 19 03:35 N 14 10 Light Rain OVC012 40 37     90% 32   29.73        
Apr 19 03:15 N 18 10 Cloudy BKN012 OVC025 40 37     89% 31   29.74        
Apr 19 02:55 N 17 10 Cloudy SCT014 OVC025 41 37     87% 32   29.73        
Apr 19 02:35 N 17 10 Cloudy BKN016 OVC023 41 37     86% 33   29.74        
Apr 19 02:15 NNE 15 10 Cloudy BKN016 BKN022 OVC027 42 38     86% 34   29.75        
Apr 19 01:55 N 16 10 Cloudy OVC014 42 38     87% 34   29.77        
Apr 19 01:35 N 15 10 Cloudy OVC014 42 39     88% 34   29.77        
Apr 19 01:15 N 13 10 Cloudy BKN014 BKN025 OVC031 42 39     89% 35   29.77        
Apr 19 00:55 N 11 10 Cloudy SCT012 SCT022 OVC033 42 39     90% 35   29.77        
Apr 19 00:35 N 11 10 Cloudy SCT014 SCT021 OVC033 42 39     91% 35   29.76        
Apr 19 00:15 N 13 10 Cloudy BKN012 BKN018 OVC120 41 39     93% 34   29.76        
Apr 18 23:55 N 9 10 Cloudy BKN010 OVC016 42 40     91% 36   29.77        
Apr 18 23:35 N 9 10 Cloudy OVC012 42 40     93% 37   29.77        
Apr 18 23:15 N 13 10 Cloudy BKN014 OVC019 42 40     91% 35   29.78        
Apr 18 22:55 NNE 10 10 Cloudy OVC017 42 40     91% 36   29.78        
Apr 18 22:35 Calm 10 Cloudy OVC019 42 40     93%     29.76        
Apr 18 22:15 Calm 10 Cloudy BKN021 OVC026 42 41     97%     29.76        
Apr 18 21:55 Calm 10 Cloudy OVC025 42 41     98%     29.77        
Apr 18 21:35 Calm 10 Cloudy SCT005 BKN023 OVC029 41 41     100%     29.77        
Apr 18 21:15 NNE 8 10 Cloudy OVC005 41 41     100% 36   29.78        
Apr 18 20:55 Calm 5 Light Drizzle OVC007 41 41     100%     29.77        
Apr 18 20:35 NNE 8 5 Fog/Mist OVC007 42 42     100% 36   29.78        
Apr 18 20:15 Calm 5 Fog/Mist OVC005 42 42     100%     29.77        
Apr 18 19:55 Calm 7 Cloudy OVC005 42 42     100%     29.78        
Apr 18 19:35 Calm 7 Cloudy OVC005 42 42     100%     29.78        
Apr 18 19:15 Calm 7 Cloudy OVC005 41 41     100%     29.76        
Apr 18 18:55 Calm 5 Light Drizzle OVC005 42 42     100%     29.76       0
Apr 18 18:35 NNE 7 5 Fog/Mist OVC005 42 42     100% 37   29.75        
Apr 18 18:15 Calm 4 Light Drizzle OVC005 43 43     100%     29.74        
Apr 18 17:55 Calm 3 Rain OVC005 44 44     100%     29.74   0    
Apr 18 17:35 NNE 8 2 Heavy Drizzle OVC003 44 44     100% 40   29.71        
Apr 18 17:15 NE 6 2 Rain OVC003 45 45     100% 42   29.7        
Apr 18 16:55 Calm 1.75 Drizzle OVC005 48 48     100%     29.71        
Apr 18 16:35 Calm 3 Rain OVC005 47 47     100%     29.69        
Apr 18 16:15 Calm 3 Rain BKN005 OVC010 47 47     100%     29.68        
Apr 18 15:55 Calm 4 Light Rain BKN007 OVC012 47 47     100%     29.67     0  
Apr 18 15:35 Calm 5 Light Rain OVC005 47 47     100%     29.67        
Apr 18 15:15 Calm 7 Light Rain BKN005 OVC010 48 48     100%     29.66        
Apr 18 14:55 NNE 8 7 Light Rain OVC008 48 48     99% 45   29.66   0    
Apr 18 14:35 Calm 7 Rain BKN008 OVC016 51 51     99%     29.66   0    
Apr 18 14:15 Calm 7 Light Rain SCT008 OVC015 51 51     99%     29.66        
Apr 18 13:55 WNW 5 5 Rain BKN006 BKN011 OVC019 51 51     100%     29.64   0    
Apr 18 13:35 W 9 2.5 Rain BKN006 BKN010 OVC022 52 52     100%     29.64   0    
Apr 18 13:15 W 9 3 Light Rain BKN006 BKN010 OVC016 52 52     100%     29.64   0    
Apr 18 12:55 W 8 4 Rain BKN008 OVC016 52 51     99%     29.63   0   0
Apr 18 12:35 W 8 3 Light Rain BKN005 OVC010 52 52     100%     29.62   0    
Apr 18 12:15 Calm 3 Light Rain BKN005 OVC010 52 52     100%     29.61   0    
Apr 18 11:55 Calm 3 Rain BKN005 OVC008 52 52     100%     29.6   0    
Apr 18 11:35 Calm 3 Heavy Rain BKN008 OVC014 52 52     100%     29.59        
Apr 18 11:15 Calm 5 Light Rain BKN008 OVC014 52 52     99%     29.58        
Apr 18 10:55 W 8 5 Rain OVC008 52 52     100%     29.58   0    
Apr 18 10:35 Calm 3 Rain SCT004 BKN008 OVC027 53 53     100%     29.58   0    
Apr 18 10:15 NW 8 2 Heavy Rain OVC004 53 53     100%     29.57   0    
Apr 18 09:55 Calm 3 Heavy Rain BKN004 OVC008 54 54     100%     29.57   0 0  
Apr 18 09:35 Calm 2 Drizzle OVC005 54 54     100%     29.57        
Apr 18 09:15 Calm 1.75 Heavy Drizzle OVC009 54 54     98%     29.57        
Apr 18 08:55 Calm 7 Cloudy OVC009 55 53     95%     29.57        
Apr 18 08:35 W 5 5 Fog/Mist OVC009 55 54     95%     29.57        
Apr 18 08:15 Calm 5 Fog/Mist OVC007 55 54     97%     29.58        
Apr 18 07:55 Calm 5 Fog/Mist OVC007 56 55     97%     29.57        
Apr 18 07:35 Calm 5 Fog/Mist OVC007 56 56     97%     29.56        
Apr 18 07:15 Calm 3 Fog/Mist OVC007 58 57     99%     29.56        
Apr 18 06:55 Calm 7 Cloudy OVC007 58 58     98%     29.57       0
Apr 18 06:35 W 9 7 Cloudy OVC007 59 59     99%     29.56        
Apr 18 06:15 Calm 10 Mostly Cloudy SCT009 SCT070 BKN090 60 60     99%     29.56        
Apr 18 05:55 SW 6 10 Rain BKN009 BKN014 OVC090 61 61     99%     29.55   0    
Apr 18 05:35 SW 16 10 Light Rain BKN009 OVC016 61 61     99%     29.58   0    
Apr 18 05:15 SW 15 4 Heavy Rain BKN011 BKN018 OVC038 62 62     100%     29.58   0    
Apr 18 04:55 SW 10 5 Cloudy BKN013 OVC019 62 61     97%     29.58   0    
Apr 18 04:35 SSW 11 10 Rain BKN019 BKN037 BKN047 63 60     91%     29.56        
Apr 18 04:15 SW 13 10 Partly Cloudy SCT039 SCT047 SCT070 63 60     87%     29.57        
Apr 18 03:55 WSW 11 10 Partly Cloudy SCT039 SCT045 63 60     87%     29.57        
Apr 18 03:35 SW 16 10 Partly Cloudy SCT046 63 59     88%     29.58        
Apr 18 03:15 SW 15 10 Partly Cloudy SCT044 SCT060 63 59     88%     29.58        
Apr 18 02:55 SSW 17 10 Mostly Cloudy SCT042 BKN048 BKN055 63 59     87%     29.58        
Apr 18 02:35 SW 17 10 Cloudy BKN044 OVC050 63 59     87%     29.58        
Apr 18 02:15 SW 15 10 Partly Cloudy SCT044 SCT049 62 58     87%     29.58        
Apr 18 01:55 SSW 16 10 Partly Cloudy SCT046 62 58     87%     29.59        
Apr 18 01:35 SSW 16 10 Partly Cloudy SCT046 63 58     86%     29.59        
Apr 18 01:15 SSW 22 10 Clear and Windy CLR 63 58     86%     29.59        
Apr 18 00:55 SSW 20 10 Clear and Windy CLR 63 58     84%     29.59        
Apr 18 00:35 SSW 18 10 Clear CLR 63 58     83%     29.59        
Apr 18 00:15 SSW 20 10 Clear and Windy CLR 64 58     82%     29.6        
Apr 17 23:55 SSW 20 10 Clear and Windy CLR 65 58     79%     29.62        
Apr 17 23:35 SSW 18 10 Clear CLR 65 57     75%     29.62        
Apr 17 23:15 SSW 21 10 Clear and Windy CLR 66 57     73%     29.62        
Apr 17 22:55 SSW 20 10 Partly Cloudy and Windy SCT055 SCT065 66 56     68%     29.63        
Apr 17 22:35 SSW 20 10 Cloudy and Windy SCT041 OVC060 67 55     64%     29.64        
Apr 17 22:15 SSW 21 10 Cloudy and Windy OVC060 68 54     60%     29.65        
Apr 17 21:55 SSW 17 10 Cloudy BKN060 OVC070 69 53     57%     29.64        
Apr 17 21:35 SSW 20 10 Mostly Cloudy and Windy BKN060 BKN070 69 52     55%     29.64        
Notice The following observation data may not be complete
May 15 09:15   10 Partly Cloudy SCT017 SCT032          %              
May 14 23:15 SE 5 1.5 Cloudy BKN015 BKN024 OVC038 63 63     98%     29.85   0    
May 14 10:15 Calm 10 Cloudy OVC090 65 65     99%     29.98        
May 14 06:55   7 Cloudy BKN050 BKN065 OVC080 58 57     97%     30.01        
May 14 02:35 SE 3 7 Clear CLR 52 52     100%     29.92        
May 13 22:55 Calm 7 Mostly Cloudy BKN085 52 51     98%     29.99        
May 13 14:15 N 7 10 Partly Cloudy SCT080 64 57     78%     30.02        
May 13 12:35 NNE 5 7 Clear   63 58     82%     30.04        
May 13 12:15 NNE 7 7 Mostly Cloudy BKN100 62 57     83%     30.04        
Notice The following observation data may not be complete
May 13 09:15   4 Fog/Mist OVC005          %              
May 13 01:15 NE 8 3 Thunderstorms and Rain OVC003 50 50     100% 47   30.05        
May 12 23:35 NE 3 5 Fog/Mist OVC005 47 47     100% 46   30.04        
May 12 16:35 ENE 8 2 Clear   47 47     100% 43   30.04        
May 12 14:15 NNE 9 7 Cloudy OVC012 48 46     93% 44   30.11        
Notice The following observation data may not be complete
May 12 13:15   7 Cloudy OVC012          %              
May 12 12:35 NNE 11 10 Cloudy OVC010 50 47     90% 45   30.1        
May 12 03:35 NNE 13 10 Clear   47 45     93% 42   29.96        
May 12 01:55 NE 13 10 Cloudy OVC080 49 46     92% 44   29.95        
Notice The following observation data may not be complete
May 12 00:35   10 Cloudy OVC090          %              
May 11 23:35 NNE 6 10 Cloudy OVC090 51 47     89%     29.96        
May 11 22:55 NE 5 10 Cloudy SCT090 OVC120 50 47     90% 48   29.96        
May 11 22:35 NNE 6 10 Cloudy OVC120 50 47     90% 48   29.96        
May 11 21:55 NE 6 10 Cloudy OVC110 50 47     90% 47   29.96        
May 11 20:55 NE 10 10 Mostly Cloudy SCT070 BKN095 50 47     90% 46   29.94        
May 11 13:15 E 15 10 Clear CLR 58 51     76%     29.94        
Jun 12 07:35 W 13 10 Clear CLR 76 61     60%   76 29.99        
Jun 12 01:55 SSW 10 10 Clear CLR 73 58     58%   73 29.96        
Jun 11 21:15 S 14 10 Clear CLR 81 56     42%   81 29.89        
Notice The following observation data may not be complete
Jun 11 16:35   10 Clear CLR          %              
Jun 11 12:35 SW 18 10 Clear CLR 88 59     38%   88 29.96        
Notice The following observation data may not be complete
Jun 11 12:15   10 Clear CLR          %              
Jun 11 10:35 WSW 16 10 Clear CLR 84 60     44%   84 29.99        
Notice The following observation data may not be complete
Jun 11 02:35   10 Clear CLR          %              
Notice The following observation data may not be complete
Jun 10 20:15   10 Clear CLR          %              
Jun 10 17:55 SSW 23 10 Clear and Windy CLR 87 47     24%   84 29.81        
Jun 10 15:55   10 Clear CLR 89 47     24%   86 29.83        
Jun 10 15:15 SSW 23 7 Clear and Windy CLR 89 49     26%   86 29.83        
Jun 10 13:15   10 Clear CLR 87 49     28%   84 29.87        
Jun 10 10:55 SW 20 10 Clear and Windy CLR 82 53     37%   81 29.89        
Jun 10 08:15 SW 9 10 Clear CLR 71 56     59%   70 29.91        
Notice The following observation data may not be complete
Jun 09 23:15   10 Clear CLR          %              
Jun 09 18:55 NNE 8 10 Mostly Cloudy SCT085 BKN110 72 56     56%   72 29.8        
Notice The following observation data may not be complete
Jun 09 18:15   10 Mostly Cloudy SCT030 BKN085          %              
Jun 09 16:35 NE 13 10 Clear   83 55     38%   82 29.77        
Jun 09 16:15   10 Partly Cloudy SCT090 88 52     29%   86 29.76        
Jun 09 10:35 W 11 10 Clear CLR 80 54     40%   80 29.82        
Notice The following observation data may not be complete
Jun 09 09:15   10 Partly Cloudy SCT095          %              
Jun 09 06:55 NNW 9 10 Partly Cloudy SCT100 SCT120 68 50     53%     29.81        
Notice The following observation data may not be complete
Jun 09 04:35   10 Clear CLR          %              
Jun 09 00:15 Calm 10 Clear   64 49     57%     29.85        
Jun 08 23:15 S 7 10 Mostly Cloudy BKN100 65 49     55%     29.85        
Jun 08 18:55 WSW 6 10 Clear CLR 77 41     27%   76 29.86        
Notice The following observation data may not be complete
Jun 07 22:15   10 Clear CLR          %              
Notice The following observation data may not be complete
Jun 07 21:15   10 Clear CLR          %              
Jun 07 14:35 NE 9 10 Clear CLR 71 45     40%   70 30.11        
Jun 07 11:55 NNE 11 10 Clear CLR 69 48     48%     30.14        
Jun 07 10:55 NNE 11 10 Clear CLR 67 48     49%     30.15        
Notice The following observation data may not be complete
Jun 07 09:15   10 Clear CLR          %              
Jun 06 09:55 NNE 10 10 Clear CLR 63 48     59%     30.06        
Notice The following observation data may not be complete
Jun 06 09:15   10 Clear CLR          %              
Jun 06 04:35 N 7 10 Clear CLR 55 49     81%     29.99        
Jun 06 00:35 N 10 10 Clear CLR 57 45     64%     29.96        
Notice The following observation data may not be complete
Jun 05 19:15   10 Clear CLR          %